Weather in Berezovskaya

Russia / Volgograd Oblast     50°15′47″N   43°58′53″E
temp.,
°C
wind,
m/s
gust,
m/s
humid.,
%
clouds,
%
prec.,
mm/h
press.,
hPa
HPBL,
m
3 august, tue
tue300:00+28sse483296 0.0 1010107
03:00+24wsw393810 0.0 1010134
06:00+25ssw224347 0.1 101140
09:00+33ssw452651 0.1 1010771
12:00+37ssw591984 0.0 10104030
15:00+28nw71239100 0.1 1010344
18:00+29n353489 0.0 100985
21:00+22n7137880 1.6 1011287
4 august, wed
wed400:00+22nne387798 0.0 1011218
03:00+20wsw1691100 5.4 1013240
06:00+20nw2483100 1.2 1012128
09:00+24nw346393 1.2 1013668
12:00+29nw344630 0.0 10131752
15:00+28nw2349100 0.1 1013897
18:00+26nne35571 0.0 1013217
21:00+21n49690 0.0 1015186
5 august, thu
thu500:00+20n3679100 0.0 1015135
03:00+19n3776100 0.0 1016169
06:00+19n2674100 0.0 1017177
09:00+25nne44462 0.0 1017915
12:00+28n3335100 0.0 10162298
15:00+29n43290 0.0 10162325
18:00+27n3533100 0.0 1016436
21:00+22nne4645100 0.0 1016105
6 august, fri
fri600:00+20ne4947100 0.0 1016148
03:00+19ene47494 0.0 1016111
06:00+19e38530 0.0 1016172
09:00+26ese45375 0.0 1016725
12:00+30se3326100 0.0 10152115
15:00+32se34225 0.0 10132675
18:00+31se45265 0.0 1012243
21:00+24e512345 0.0 1013198
7 august, sat
sat700:00+24ese6153323 0.0 1013349
03:00+22ese61431100 0.0 1013303
06:00+22ese61435100 0.0 1013315
09:00+27se6928100 0.0 1014523
12:00+31ese662299 0.0 10131525
15:00+33ese5618100 0.0 10122511
18:00+29ese3624100 0.0 1011103
21:00+25e482799 0.0 1012110